User: anonymous   Login
Location: Unspecified
(0.0000°N, 0.0000°E)
Time: 09:30:51
(UTC+00:00)
Language:

COSMOS 2490 - Orbit

View from above orbital plane
View from above orbital plane
View from above satellite
View from above satellite

Ground track
Ground track

The orbit is defined by the following mean orbital elements,

1 39485U          26104.23062002 +.00000000 +00000-0 +77838-3 0 00006
2 39485  82.4851 207.9873 0020469 248.7416 111.1478 12.42876062    09
Epoch (UTC): 14 April 2026 05:32:05
Eccentricity: 0.0020469
inclination: 82.4851°
perigee height: 1478 km
apogee height: 1511 km
right ascension of ascending node: 207.9873°
argument of perigee: 248.7416°
revolutions per day: 12.42876062
mean anomaly at epoch: 111.1478°

The dashed part of the orbit path shows where the satellite is in the earth's shadow,  

DLR